Multibeam Report for LPRS02RR


Ship Name: Roger Revelle
Chief Scientist: Goldfinger, Chris
Oregon State University
Source Organization: University of California, Scripps Institution of Oceanography (UC/SIO)
Start Date: 2002-06-26
End Date: 2002-07-27


View ISO Metadata

Visit the full NCEI Bathymetry Viewer


Multibeam Bathymetry

Cruise Details

Project: Laperouse Expedition
Instrument: Simrad EM120

Data Quality

Number of Files: 707
Number of Records: 103563
BATHYMETRY DATA Quantity Percentage
Number of Beams 19780533 100%
Number of Good Beams 17148546 86.69%
Number of Zero Beams 2631987 13.31%
Number of Flagged Beams 0 0%

Navigation Totals

Total Time: 301.7972 hours
Total Track Length: 5869.949 km
Average Speed: 19.45 km/hr (10.5022 knots)

Cruise Bounds

Northern Extent: 44.73503
Southern Extent: 36.1606
Western Extent: -126.596
Eastern Extent: -123.127625

Limits

Minimum Sonar Depth -62914.5586 Maximum Sonar Depth 31457.2793
Minimum Altitude 0 Maximum Altitude 11933.9404
Minimum Depth 5.17 Maximum Depth 11953.5996

File Information

Full Resolution Bathymetry as collected (raw): 353

Files File Size Description
20070727103400001_0002_20020627_024953p.mb57.gz 8.90MB Simrad multibeam processing format
20070727103401002_0002_20020709_062209p.mb57.gz 33.89MB Simrad multibeam processing format
20070727103403003_0003_20020627_034154p.mb57.gz 6.85MB Simrad multibeam processing format
20070727103404004_0003_20020709_161339p.mb57.gz 14.10MB Simrad multibeam processing format
20070727103406005_0004_20020627_044249p.mb57.gz 5.88MB Simrad multibeam processing format
20070727103408006_0004_20020709_171359p.mb57.gz 2.46MB Simrad multibeam processing format
20070727103408007_0005_20020627_054038p.mb57.gz 205.5KB Simrad multibeam processing format
20070727103409008_0005_20020710_035112p.mb57.gz 6.57MB Simrad multibeam processing format
20070727103410009_0006_20020627_054249p.mb57.gz 5.44MB Simrad multibeam processing format
20070727103412010_0006_20020710_045130p.mb57.gz 6.54MB Simrad multibeam processing format
20070727103413011_0007_20020627_064249p.mb57.gz 4.79MB Simrad multibeam processing format
20070727103413012_0007_20020710_055130p.mb57.gz 2.52MB Simrad multibeam processing format
20070727103414013_0008_20020627_074249p.mb57.gz 4.96MB Simrad multibeam processing format
20070727103416014_0009_20020627_084249p.mb57.gz 5.09MB Simrad multibeam processing format
20070727103417015_0010_20020627_094249p.mb57.gz 5.61MB Simrad multibeam processing format
20070727103418016_0011_20020627_104249p.mb57.gz 5.11MB Simrad multibeam processing format
20070727103418017_0012_20020627_114249p.mb57.gz 5.05MB Simrad multibeam processing format
20070727103421018_0013_20020627_124249p.mb57.gz 4.80MB Simrad multibeam processing format
20070727103421019_0015_20020628_080020p.mb57.gz 0.62MB Simrad multibeam processing format
20070727103422020_0016_20020628_080839p.mb57.gz 5.41MB Simrad multibeam processing format
20070727103422021_0017_20020628_090713p.mb57.gz 8.04MB Simrad multibeam processing format
20070727103424022_0018_20020628_100713p.mb57.gz 10.86MB Simrad multibeam processing format
20070727103426023_0019_20020628_110713p.mb57.gz 12.06MB Simrad multibeam processing format
20070727103428024_0020_20020628_120713p.mb57.gz 13.42MB Simrad multibeam processing format
20070727103429025_0021_20020628_130713p.mb57.gz 1.90MB Simrad multibeam processing format
20070727103431026_0022_20020628_203321p.mb57.gz 23.04MB Simrad multibeam processing format
20070727103433027_0023_20020628_213336p.mb57.gz 13.60MB Simrad multibeam processing format
20070727103435028_0024_20020628_223336p.mb57.gz 5.17MB Simrad multibeam processing format
20070727103437029_0025_20020628_233336p.mb57.gz 11.92MB Simrad multibeam processing format
20070727103438030_0027_20020629_003807p.mb57.gz 7.29MB Simrad multibeam processing format
20070727103438031_0028_20020629_013817p.mb57.gz 1.58MB Simrad multibeam processing format
20070727103439032_0030_20020629_073315p.mb57.gz 5.89MB Simrad multibeam processing format
20070727103441033_0031_20020629_083330p.mb57.gz 5.83MB Simrad multibeam processing format
20070727103442034_0032_20020629_093330p.mb57.gz 5.86MB Simrad multibeam processing format
20070727103442035_0033_20020629_103330p.mb57.gz 6.01MB Simrad multibeam processing format
20070727103444036_0034_20020629_113330p.mb57.gz 6.45MB Simrad multibeam processing format
20070727103446037_0035_20020629_123330p.mb57.gz 6.34MB Simrad multibeam processing format
20070727103447038_0036_20020629_133331p.mb57.gz 5.90MB Simrad multibeam processing format
20070727103447039_0037_20020629_143331p.mb57.gz 5.63MB Simrad multibeam processing format
20070727103449040_0038_20020629_153331p.mb57.gz 9.11MB Simrad multibeam processing format
20070727103451041_0039_20020629_171256p.mb57.gz 5.52MB Simrad multibeam processing format
20070727103452042_0040_20020629_181256p.mb57.gz 2.53MB Simrad multibeam processing format
20070727103453043_0041_20020629_184259p.mb57.gz 0.96MB Simrad multibeam processing format
20070727103453044_0042_20020630_032050p.mb57.gz 5.67MB Simrad multibeam processing format
20070727103454045_0043_20020630_042105p.mb57.gz 8.08MB Simrad multibeam processing format
20070727103455046_0044_20020630_054451p.mb57.gz 5.53MB Simrad multibeam processing format
20070727103457047_0045_20020630_064451p.mb57.gz 5.53MB Simrad multibeam processing format
20070727103457048_0046_20020630_074451p.mb57.gz 5.49MB Simrad multibeam processing format
20070727103458049_0047_20020630_084451p.mb57.gz 5.44MB Simrad multibeam processing format
20070727103459050_0048_20020630_094451p.mb57.gz 5.31MB Simrad multibeam processing format
20070727103501051_0049_20020630_104451p.mb57.gz 5.43MB Simrad multibeam processing format
20070727103502052_0050_20020630_114451p.mb57.gz 5.47MB Simrad multibeam processing format
20070727103502053_0051_20020630_124451p.mb57.gz 5.53MB Simrad multibeam processing format
20070727103503054_0052_20020630_134451p.mb57.gz 5.21MB Simrad multibeam processing format
20070727103504055_0053_20020630_144451p.mb57.gz 3.70MB Simrad multibeam processing format
20070727103506056_0054_20020630_153225p.mb57.gz 4.84MB Simrad multibeam processing format
20070727103507057_0055_20020630_163233p.mb57.gz 11.22MB Simrad multibeam processing format
20070727103508058_0056_20020630_173233p.mb57.gz 4.63MB Simrad multibeam processing format
20070727103508059_0057_20020630_183233p.mb57.gz 4.82MB Simrad multibeam processing format
20070727103509060_0058_20020630_193233p.mb57.gz 5.17MB Simrad multibeam processing format
20070727103511061_0059_20020630_203233p.mb57.gz 11.40MB Simrad multibeam processing format
20070727103513062_0060_20020630_213233p.mb57.gz 11.40MB Simrad multibeam processing format
20070727103513063_0061_20020630_223233p.mb57.gz 11.69MB Simrad multibeam processing format
20070727103514064_0062_20020630_233233p.mb57.gz 11.64MB Simrad multibeam processing format
20070727103516065_0064_20020701_004651p.mb57.gz 11.90MB Simrad multibeam processing format
20070727103516066_0065_20020701_014755p.mb57.gz 9.33MB Simrad multibeam processing format
20070727103517067_0066_20020701_023702p.mb57.gz 12.11MB Simrad multibeam processing format
20070727103517068_0067_20020701_033756p.mb57.gz 10.17MB Simrad multibeam processing format
20070727103518069_0068_20020701_111624p.mb57.gz 11.72MB Simrad multibeam processing format
20070727103518070_0069_20020701_121643p.mb57.gz 11.63MB Simrad multibeam processing format
20070727103519071_0070_20020701_131643p.mb57.gz 11.68MB Simrad multibeam processing format
20070727103521072_0071_20020701_141643p.mb57.gz 11.59MB Simrad multibeam processing format
20070727103522073_0072_20020701_151643p.mb57.gz 11.51MB Simrad multibeam processing format
20070727103523074_0073_20020701_161643p.mb57.gz 11.38MB Simrad multibeam processing format
20070727103524075_0074_20020701_171643p.mb57.gz 11.61MB Simrad multibeam processing format
20070727103526076_0075_20020701_181643p.mb57.gz 12.94MB Simrad multibeam processing format
20070727103527077_0076_20020701_191643p.mb57.gz 2.94MB Simrad multibeam processing format
20070727103527078_0077_20020701_192901p.mb57.gz 4.70MB Simrad multibeam processing format
20070727103528079_0078_20020701_195002p.mb57.gz 3.86MB Simrad multibeam processing format
20070727103529080_0079_20020702_202315p.mb57.gz 0.99MB Simrad multibeam processing format
20070727103529081_0080_20020702_202751p.mb57.gz 147.8KB Simrad multibeam processing format
20070727103529082_0081_20020702_202851p.mb57.gz 4.68MB Simrad multibeam processing format
20070727103530083_0082_20020702_205326p.mb57.gz 6.97MB Simrad multibeam processing format
20070727103531084_0083_20020703_042423p.mb57.gz 13.71MB Simrad multibeam processing format
20070727103532085_0084_20020703_052432p.mb57.gz 14.36MB Simrad multibeam processing format
20070727103533086_0085_20020703_062432p.mb57.gz 4.68MB Simrad multibeam processing format
20070727103534087_0086_20020703_064256p.mb57.gz 19.17MB Simrad multibeam processing format
20070727103536088_0087_20020703_075637p.mb57.gz 15.44MB Simrad multibeam processing format
20070727103537089_0088_20020703_085650p.mb57.gz 14.95MB Simrad multibeam processing format
20070727103538090_0089_20020703_095650p.mb57.gz 14.81MB Simrad multibeam processing format
20070727103539091_0090_20020703_105650p.mb57.gz 14.99MB Simrad multibeam processing format
20070727103541092_0091_20020703_115650p.mb57.gz 14.78MB Simrad multibeam processing format
20070727103542093_0092_20020703_125650p.mb57.gz 14.77MB Simrad multibeam processing format
20070727103543094_0093_20020703_135650p.mb57.gz 14.77MB Simrad multibeam processing format
20070727103544095_0094_20020703_145650p.mb57.gz 26.71MB Simrad multibeam processing format
20070727103546096_0095_20020703_165232p.mb57.gz 14.56MB Simrad multibeam processing format
20070727103548097_0096_20020703_175232p.mb57.gz 14.56MB Simrad multibeam processing format
20070727103549098_0097_20020703_185232p.mb57.gz 21.09MB Simrad multibeam processing format
20070727103551099_0098_20020703_202258p.mb57.gz 14.12MB Simrad multibeam processing format
20070727103552100_0099_20020703_212258p.mb57.gz 9.47MB Simrad multibeam processing format
20070727103553101_0100_20020704_033822p.mb57.gz 14.29MB Simrad multibeam processing format
20070727103554102_0101_20020704_043831p.mb57.gz 14.00MB Simrad multibeam processing format
20070727103556103_0102_20020704_053831p.mb57.gz 13.63MB Simrad multibeam processing format
20070727103558104_0103_20020704_063831p.mb57.gz 13.46MB Simrad multibeam processing format
20070727103601105_0104_20020704_073831p.mb57.gz 13.69MB Simrad multibeam processing format
20070727103602106_0105_20020704_083831p.mb57.gz 14.06MB Simrad multibeam processing format
20070727103604107_0106_20020704_093832p.mb57.gz 13.44MB Simrad multibeam processing format
20070727103606108_0107_20020704_103832p.mb57.gz 12.95MB Simrad multibeam processing format
20070727103608109_0108_20020704_113832p.mb57.gz 13.19MB Simrad multibeam processing format
20070727103611110_0109_20020704_123832p.mb57.gz 13.38MB Simrad multibeam processing format
20070727103611111_0110_20020704_133832p.mb57.gz 13.54MB Simrad multibeam processing format
20070727103612112_0111_20020704_143832p.mb57.gz 13.43MB Simrad multibeam processing format
20070727103613113_0112_20020704_153832p.mb57.gz 13.37MB Simrad multibeam processing format
20070727103614114_0113_20020704_163832p.mb57.gz 13.43MB Simrad multibeam processing format
20070727103616115_0114_20020704_173832p.mb57.gz 13.69MB Simrad multibeam processing format
20070727103617116_0115_20020704_183832p.mb57.gz 13.92MB Simrad multibeam processing format
20070727103618117_0116_20020704_193832p.mb57.gz 11.14MB Simrad multibeam processing format
20070727103619118_0117_20020704_202908p.mb57.gz 0.97MB Simrad multibeam processing format
20070727103619119_0118_20020704_203336p.mb57.gz 3.96MB Simrad multibeam processing format
20070727103619120_0119_20020704_205145p.mb57.gz 4.70MB Simrad multibeam processing format
20070727103621121_0120_20020704_211420p.mb57.gz 11.78MB Simrad multibeam processing format
20070727103622122_0121_20020704_221431p.mb57.gz 11.76MB Simrad multibeam processing format
20070727103622123_0122_20020704_231431p.mb57.gz 8.72MB Simrad multibeam processing format
20070727103623124_0123_20020704_235743p.mb57.gz 3.44MB Simrad multibeam processing format
20070727103623125_0125_20020705_113554p.mb57.gz 85.6KB Simrad multibeam processing format
20070727103623126_0126_20020705_164540p.mb57.gz 15.67MB Simrad multibeam processing format
20070727103624127_0127_20020705_175242p.mb57.gz 13.53MB Simrad multibeam processing format
20070727103626128_0128_20020705_185242p.mb57.gz 13.60MB Simrad multibeam processing format
20070727103627129_0129_20020705_195242p.mb57.gz 13.43MB Simrad multibeam processing format
20070727103627130_0130_20020705_205242p.mb57.gz 9.88MB Simrad multibeam processing format
20070727103628131_0131_20020706_040337p.mb57.gz 10.08MB Simrad multibeam processing format
20070727103629132_0132_20020706_044900p.mb57.gz 2.53MB Simrad multibeam processing format
20070727103629133_0133_20020706_122501p.mb57.gz 2.54MB Simrad multibeam processing format
20070727103631134_0134_20020706_123631p.mb57.gz 13.48MB Simrad multibeam processing format
20070727103631135_0135_20020706_133644p.mb57.gz 5.89MB Simrad multibeam processing format
20070727103632136_0136_20020706_143644p.mb57.gz 5.96MB Simrad multibeam processing format
20070727103633137_0137_20020706_153644p.mb57.gz 6.32MB Simrad multibeam processing format
20070727103634138_0138_20020706_163644p.mb57.gz 6.14MB Simrad multibeam processing format
20070727103634139_0139_20020706_173644p.mb57.gz 6.18MB Simrad multibeam processing format
20070727103636140_0140_20020706_183644p.mb57.gz 6.13MB Simrad multibeam processing format
20070727103637141_0141_20020706_193644p.mb57.gz 6.24MB Simrad multibeam processing format
20070727103638142_0142_20020706_203644p.mb57.gz 6.58MB Simrad multibeam processing format
20070727103638143_0143_20020706_213644p.mb57.gz 6.52MB Simrad multibeam processing format
20070727103639144_0144_20020706_223644p.mb57.gz 14.31MB Simrad multibeam processing format
20070727103641145_0145_20020706_233644p.mb57.gz 14.25MB Simrad multibeam processing format
20070727103642146_0147_20020707_004302p.mb57.gz 14.32MB Simrad multibeam processing format
20070727103642147_0148_20020707_014310p.mb57.gz 14.29MB Simrad multibeam processing format
20070727103643148_0149_20020707_024310p.mb57.gz 14.28MB Simrad multibeam processing format
20070727103644149_0150_20020707_034311p.mb57.gz 13.70MB Simrad multibeam processing format
20070727103646150_0151_20020707_044311p.mb57.gz 13.44MB Simrad multibeam processing format
20070727103647151_0152_20020707_054311p.mb57.gz 8.32MB Simrad multibeam processing format
20070727103647152_0153_20020707_061824p.mb57.gz 5.92MB Simrad multibeam processing format
20070727103647153_0154_20020707_064311p.mb57.gz 9.07MB Simrad multibeam processing format
20070727103648154_0155_20020707_201437p.mb57.gz 13.83MB Simrad multibeam processing format
20070727103649155_0156_20020707_211452p.mb57.gz 9.66MB Simrad multibeam processing format
20070727103649156_0157_20020708_040735p.mb57.gz 2.01MB Simrad multibeam processing format
20070727103651157_0158_20020708_042819p.mb57.gz 5.84MB Simrad multibeam processing format
20070727103651158_0159_20020708_052834p.mb57.gz 4.38MB Simrad multibeam processing format
20070727103652159_0160_20020708_061410p.mb57.gz 5.80MB Simrad multibeam processing format
20070727103653160_0161_20020708_071421p.mb57.gz 5.73MB Simrad multibeam processing format
20070727103653161_0162_20020708_081421p.mb57.gz 6.00MB Simrad multibeam processing format
20070727103654162_0163_20020708_091421p.mb57.gz 6.22MB Simrad multibeam processing format
20070727103656163_0164_20020708_101421p.mb57.gz 11.30MB Simrad multibeam processing format
20070727103657164_0165_20020708_111421p.mb57.gz 34.09MB Simrad multibeam processing format
20070727103700165_0166_20020708_121422p.mb57.gz 21.18MB Simrad multibeam processing format
20070727103702166_0173_20020711_034637p.mb57.gz 2.99MB Simrad multibeam processing format
20070727103702167_0174_20020711_041353p.mb57.gz 7.07MB Simrad multibeam processing format
20070727103702168_0175_20020711_051402p.mb57.gz 13.41MB Simrad multibeam processing format
20070727103703169_0176_20020711_061402p.mb57.gz 13.11MB Simrad multibeam processing format
20070727103705170_0177_20020711_071402p.mb57.gz 13.09MB Simrad multibeam processing format
20070727103706171_0178_20020711_081402p.mb57.gz 13.46MB Simrad multibeam processing format
20070727103707172_0179_20020711_091402p.mb57.gz 13.49MB Simrad multibeam processing format
20070727103707173_0180_20020711_101402p.mb57.gz 13.62MB Simrad multibeam processing format
20070727103708174_0181_20020711_111402p.mb57.gz 7.28MB Simrad multibeam processing format
20070727103709175_0182_20020711_121402p.mb57.gz 7.22MB Simrad multibeam processing format
20070727103711176_0183_20020711_131402p.mb57.gz 7.27MB Simrad multibeam processing format
20070727103712177_0184_20020711_141402p.mb57.gz 13.35MB Simrad multibeam processing format
20070727103713178_0185_20020711_151402p.mb57.gz 13.47MB Simrad multibeam processing format
20070727103713179_0186_20020711_161402p.mb57.gz 12.26MB Simrad multibeam processing format
20070727103714180_0187_20020711_171402p.mb57.gz 13.21MB Simrad multibeam processing format
20070727103716181_0188_20020711_181402p.mb57.gz 14.10MB Simrad multibeam processing format
20070727103717182_0189_20020711_191402p.mb57.gz 2.98MB Simrad multibeam processing format
20070727103717183_0190_20020713_012255p.mb57.gz 3.77MB Simrad multibeam processing format
20070727103717184_0191_20020713_014021p.mb57.gz 1.20MB Simrad multibeam processing format
20070727103718185_0193_20020713_014545p.mb57.gz 21.97MB Simrad multibeam processing format
20070727103718186_0194_20020713_032329p.mb57.gz 13.56MB Simrad multibeam processing format
20070727103719187_0195_20020713_042329p.mb57.gz 13.50MB Simrad multibeam processing format
20070727103721188_0196_20020713_052329p.mb57.gz 12.77MB Simrad multibeam processing format
20070727103722189_0197_20020713_062329p.mb57.gz 12.90MB Simrad multibeam processing format
20070727103722190_0198_20020713_072210p.mb57.gz 291.4KB Simrad multibeam processing format
20070727103722191_0199_20020713_072329p.mb57.gz 13.38MB Simrad multibeam processing format
20070727103723192_0200_20020713_082329p.mb57.gz 13.04MB Simrad multibeam processing format
20070727103723193_0201_20020713_092329p.mb57.gz 2.82MB Simrad multibeam processing format
20070727103724194_0202_20020715_083224p.mb57.gz 3.49MB Simrad multibeam processing format
20070727103724195_0203_20020715_084837p.mb57.gz 4.39MB Simrad multibeam processing format
20070727103726196_0204_20020715_090828p.mb57.gz 13.36MB Simrad multibeam processing format
20070727103726197_0205_20020715_100840p.mb57.gz 5.89MB Simrad multibeam processing format
20070727103727198_0206_20020715_103459p.mb57.gz 13.47MB Simrad multibeam processing format
20070727103727199_0207_20020715_113512p.mb57.gz 12.69MB Simrad multibeam processing format
20070727103728200_0208_20020715_123512p.mb57.gz 11.75MB Simrad multibeam processing format
20070727103729201_0209_20020715_133512p.mb57.gz 12.00MB Simrad multibeam processing format
20070727103731202_0210_20020715_143512p.mb57.gz 12.57MB Simrad multibeam processing format
20070727103732203_0211_20020715_153512p.mb57.gz 7.30MB Simrad multibeam processing format
20070727103732204_0212_20020715_163512p.mb57.gz 7.31MB Simrad multibeam processing format
20070727103733205_0213_20020715_173512p.mb57.gz 7.69MB Simrad multibeam processing format
20070727103734206_0214_20020715_183512p.mb57.gz 7.70MB Simrad multibeam processing format
20070727103737207_0215_20020715_193512p.mb57.gz 7.47MB Simrad multibeam processing format
20070727103738208_0216_20020715_203512p.mb57.gz 7.61MB Simrad multibeam processing format
20070727103738209_0217_20020715_213512p.mb57.gz 7.30MB Simrad multibeam processing format
20070727103739210_0218_20020715_223512p.mb57.gz 3.97MB Simrad multibeam processing format
20070727103739211_0219_20020715_231019p.mb57.gz 2.94MB Simrad multibeam processing format
20070727103739212_0220_20020715_233512p.mb57.gz 6.31MB Simrad multibeam processing format
20070727103741213_0221_20020716_164548p.mb57.gz 3.88MB Simrad multibeam processing format
20070727103742214_0222_20020716_172234p.mb57.gz 6.41MB Simrad multibeam processing format
20070727103742215_0223_20020716_182244p.mb57.gz 6.81MB Simrad multibeam processing format
20070727103743216_0224_20020716_192244p.mb57.gz 7.05MB Simrad multibeam processing format
20070727103743217_0225_20020716_202244p.mb57.gz 6.93MB Simrad multibeam processing format
20070727103746218_0226_20020716_212244p.mb57.gz 7.12MB Simrad multibeam processing format
20070727103747219_0227_20020716_222244p.mb57.gz 6.57MB Simrad multibeam processing format
20070727103747220_0228_20020716_232244p.mb57.gz 6.57MB Simrad multibeam processing format
20070727103748221_0230_20020717_002644p.mb57.gz 6.56MB Simrad multibeam processing format
20070727103749222_0231_20020717_012654p.mb57.gz 1.15MB Simrad multibeam processing format
20070727103749223_0232_20020717_013744p.mb57.gz 1.91MB Simrad multibeam processing format
20070727103749224_0233_20020717_015458p.mb57.gz 3.56MB Simrad multibeam processing format
20070727103751225_0234_20020717_022654p.mb57.gz 6.55MB Simrad multibeam processing format
20070727103752226_0235_20020717_032654p.mb57.gz 2.23MB Simrad multibeam processing format
20070727103752227_0237_20020717_043543p.mb57.gz 319.2KB Simrad multibeam processing format
20070727103753228_0238_20020717_182644p.mb57.gz 1.77MB Simrad multibeam processing format
20070727103753229_0239_20020717_184342p.mb57.gz 6.53MB Simrad multibeam processing format
20070727103754230_0240_20020717_194355p.mb57.gz 5.29MB Simrad multibeam processing format
20070727103754231_0241_20020718_030615p.mb57.gz 6.70MB Simrad multibeam processing format
20070727103756232_0242_20020718_040624p.mb57.gz 1.38MB Simrad multibeam processing format
20070727103756233_0243_20020718_041904p.mb57.gz 6.66MB Simrad multibeam processing format
20070727103757234_0244_20020718_051913p.mb57.gz 6.63MB Simrad multibeam processing format
20070727103758235_0245_20020718_061913p.mb57.gz 1.08MB Simrad multibeam processing format
20070727103758236_0246_20020718_062906p.mb57.gz 5.32MB Simrad multibeam processing format
20070727103758237_0247_20020718_071913p.mb57.gz 6.48MB Simrad multibeam processing format
20070727103759238_0248_20020718_081913p.mb57.gz 6.58MB Simrad multibeam processing format
20070727103801239_0249_20020718_091913p.mb57.gz 6.62MB Simrad multibeam processing format
20070727103802240_0250_20020718_101913p.mb57.gz 6.67MB Simrad multibeam processing format
20070727103802241_0251_20020718_111913p.mb57.gz 6.56MB Simrad multibeam processing format
20070727103803242_0252_20020718_121913p.mb57.gz 6.07MB Simrad multibeam processing format
20070727103803243_0254_20020718_131611p.mb57.gz 5.81MB Simrad multibeam processing format
20070727103804244_0255_20020718_232149p.mb57.gz 6.44MB Simrad multibeam processing format
20070727103806245_0257_20020719_002343p.mb57.gz 6.88MB Simrad multibeam processing format
20070727103807246_0260_20020719_085941p.mb57.gz 200.3KB Simrad multibeam processing format
20070727103807247_0261_20020719_090752p.mb57.gz 230.9KB Simrad multibeam processing format
20070727103807248_0262_20020719_091029p.mb57.gz 2.78MB Simrad multibeam processing format
20070727103808249_0263_20020719_170024p.mb57.gz 5.49MB Simrad multibeam processing format
20070727103809250_0264_20020719_175101p.mb57.gz 4.56MB Simrad multibeam processing format
20070727103811251_0265_20020719_183159p.mb57.gz 2.16MB Simrad multibeam processing format
20070727103811252_0266_20020719_185113p.mb57.gz 6.62MB Simrad multibeam processing format
20070727103812253_0267_20020719_195113p.mb57.gz 474.7KB Simrad multibeam processing format
20070727103812254_0268_20020719_195315p.mb57.gz 12.31MB Simrad multibeam processing format
20070727103813255_0269_20020719_205113p.mb57.gz 12.50MB Simrad multibeam processing format
20070727103814256_0270_20020719_215113p.mb57.gz 12.93MB Simrad multibeam processing format
20070727103814257_0271_20020719_225113p.mb57.gz 13.14MB Simrad multibeam processing format
20070727103817258_0272_20020719_235113p.mb57.gz 3.08MB Simrad multibeam processing format
20070727103818259_0274_20020720_000645p.mb57.gz 12.87MB Simrad multibeam processing format
20070727103819260_0275_20020720_010654p.mb57.gz 1.70MB Simrad multibeam processing format
20070727103819261_0276_20020720_011447p.mb57.gz 10.83MB Simrad multibeam processing format
20070727103819262_0277_20020720_020654p.mb57.gz 12.45MB Simrad multibeam processing format
20070727103820263_0278_20020720_030654p.mb57.gz 13.20MB Simrad multibeam processing format
20070727103821264_0279_20020720_040654p.mb57.gz 13.25MB Simrad multibeam processing format
20070727103822265_0280_20020720_050654p.mb57.gz 7.63MB Simrad multibeam processing format
20070727103822266_0281_20020720_111046p.mb57.gz 279.6KB Simrad multibeam processing format
20070727103822267_0282_20020720_111230p.mb57.gz 13.36MB Simrad multibeam processing format
20070727103823268_0283_20020720_121240p.mb57.gz 13.40MB Simrad multibeam processing format
20070727103825269_0284_20020720_131241p.mb57.gz 13.15MB Simrad multibeam processing format
20070727103827270_0285_20020720_141241p.mb57.gz 6.65MB Simrad multibeam processing format
20070727103827271_0286_20020720_151241p.mb57.gz 6.62MB Simrad multibeam processing format
20070727103828272_0287_20020720_161241p.mb57.gz 6.61MB Simrad multibeam processing format
20070727103829273_0288_20020720_171241p.mb57.gz 6.84MB Simrad multibeam processing format
20070727103831274_0289_20020720_181241p.mb57.gz 6.86MB Simrad multibeam processing format
20070727103832275_0290_20020720_191241p.mb57.gz 6.70MB Simrad multibeam processing format
20070727103833276_0291_20020720_201241p.mb57.gz 7.07MB Simrad multibeam processing format
20070727103833277_0292_20020720_211241p.mb57.gz 6.84MB Simrad multibeam processing format
20070727103834278_0293_20020720_221241p.mb57.gz 6.74MB Simrad multibeam processing format
20070727103836279_0294_20020720_231241p.mb57.gz 7.05MB Simrad multibeam processing format
20070727103837280_0296_20020721_001324p.mb57.gz 6.92MB Simrad multibeam processing format
20070727103838281_0297_20020721_011334p.mb57.gz 6.65MB Simrad multibeam processing format
20070727103838282_0298_20020721_021334p.mb57.gz 6.76MB Simrad multibeam processing format
20070727103839283_0299_20020721_031334p.mb57.gz 1.14MB Simrad multibeam processing format
20070727103841284_0300_20020721_032524p.mb57.gz 5.76MB Simrad multibeam processing format
20070727103842285_0301_20020721_042537p.mb57.gz 5.91MB Simrad multibeam processing format
20070727103843286_0302_20020721_052537p.mb57.gz 6.61MB Simrad multibeam processing format
20070727103843287_0303_20020721_062538p.mb57.gz 1.46MB Simrad multibeam processing format
20070727103843288_0304_20020721_063835p.mb57.gz 5.41MB Simrad multibeam processing format
20070727103844289_0305_20020721_072538p.mb57.gz 6.87MB Simrad multibeam processing format
20070727103846290_0306_20020721_082538p.mb57.gz 6.63MB Simrad multibeam processing format
20070727103846291_0307_20020721_092538p.mb57.gz 5.47MB Simrad multibeam processing format
20070727103847292_0308_20020722_214218p.mb57.gz 3.63MB Simrad multibeam processing format
20070727103847293_0309_20020722_221624p.mb57.gz 3.42MB Simrad multibeam processing format
20070727103847294_0310_20020722_224903p.mb57.gz 6.23MB Simrad multibeam processing format
20070727103848295_0311_20020722_234912p.mb57.gz 6.20MB Simrad multibeam processing format
20070727103849296_0313_20020723_004955p.mb57.gz 2.56MB Simrad multibeam processing format
20070727103851297_0314_20020723_133825p.mb57.gz 6.49MB Simrad multibeam processing format
20070727103851298_0315_20020723_143838p.mb57.gz 3.70MB Simrad multibeam processing format
20070727103852299_0317_20020724_100805p.mb57.gz 6.38MB Simrad multibeam processing format
20070727103853300_0318_20020724_110816p.mb57.gz 6.40MB Simrad multibeam processing format
20070727103854301_0319_20020724_120816p.mb57.gz 6.33MB Simrad multibeam processing format
20070727103854302_0320_20020724_130816p.mb57.gz 1.88MB Simrad multibeam processing format
20070727103856303_0321_20020725_005009p.mb57.gz 13.61MB Simrad multibeam processing format
20070727103856304_0322_20020725_015023p.mb57.gz 0.76MB Simrad multibeam processing format
20070727103857305_0323_20020725_015409p.mb57.gz 13.11MB Simrad multibeam processing format
20070727103857306_0324_20020725_025425p.mb57.gz 13.33MB Simrad multibeam processing format
20070727103858307_0325_20020725_035425p.mb57.gz 13.28MB Simrad multibeam processing format
20070727103858308_0326_20020725_045425p.mb57.gz 13.20MB Simrad multibeam processing format
20070727103859309_0327_20020725_055425p.mb57.gz 9.71MB Simrad multibeam processing format
20070727103900310_0328_20020725_111751p.mb57.gz 194.1KB Simrad multibeam processing format
20070727103901311_0329_20020725_111849p.mb57.gz 13.61MB Simrad multibeam processing format
20070727103902312_0330_20020725_121911p.mb57.gz 13.87MB Simrad multibeam processing format
20070727103902313_0331_20020725_131911p.mb57.gz 13.82MB Simrad multibeam processing format
20070727103903314_0332_20020725_141911p.mb57.gz 13.90MB Simrad multibeam processing format
20070727103903315_0333_20020725_151911p.mb57.gz 6.72MB Simrad multibeam processing format
20070727103904316_0334_20020725_161911p.mb57.gz 7.43MB Simrad multibeam processing format
20070727103906317_0335_20020725_171911p.mb57.gz 6.88MB Simrad multibeam processing format
20070727103907318_0336_20020725_181911p.mb57.gz 6.90MB Simrad multibeam processing format
20070727103907319_0337_20020725_191911p.mb57.gz 6.08MB Simrad multibeam processing format
20070727103908320_0338_20020725_201911p.mb57.gz 6.05MB Simrad multibeam processing format
20070727103908321_0339_20020725_211911p.mb57.gz 6.03MB Simrad multibeam processing format
20070727103909322_0340_20020725_221911p.mb57.gz 7.91MB Simrad multibeam processing format
20070727103911323_0341_20020725_225409p.mb57.gz 6.01MB Simrad multibeam processing format
20070727103911324_0342_20020725_235418p.mb57.gz 6.20MB Simrad multibeam processing format
20070727103912325_0346_20020726_005642p.mb57.gz 6.35MB Simrad multibeam processing format
20070727103913326_0347_20020726_015651p.mb57.gz 6.23MB Simrad multibeam processing format
20070727103914327_0348_20020726_025651p.mb57.gz 6.21MB Simrad multibeam processing format
20070727103915328_0349_20020726_035651p.mb57.gz 4.25MB Simrad multibeam processing format
20070727103916329_0350_20020726_043741p.mb57.gz 2.05MB Simrad multibeam processing format
20070727103916330_0351_20020726_045651p.mb57.gz 13.50MB Simrad multibeam processing format
20070727103917331_0352_20020726_055651p.mb57.gz 7.44MB Simrad multibeam processing format
20070727103918332_0353_20020726_065651p.mb57.gz 7.18MB Simrad multibeam processing format
20070727103918333_0354_20020726_075651p.mb57.gz 6.89MB Simrad multibeam processing format
20070727103919334_0355_20020726_085651p.mb57.gz 6.75MB Simrad multibeam processing format
20070727103921335_0356_20020726_095651p.mb57.gz 6.96MB Simrad multibeam processing format
20070727103922336_0357_20020726_105651p.mb57.gz 5.72MB Simrad multibeam processing format
20070727103922337_0359_20020726_174606p.mb57.gz 12.80MB Simrad multibeam processing format
20070727103923338_0360_20020726_184606p.mb57.gz 8.13MB Simrad multibeam processing format
20070727103924339_0361_20020726_192718p.mb57.gz 11.37MB Simrad multibeam processing format
20070727103926340_0362_20020726_202730p.mb57.gz 12.84MB Simrad multibeam processing format
20070727103927341_0363_20020726_212731p.mb57.gz 12.17MB Simrad multibeam processing format
20070727103927342_0364_20020726_222731p.mb57.gz 12.45MB Simrad multibeam processing format
20070727103929343_0365_20020726_232731p.mb57.gz 12.77MB Simrad multibeam processing format
20070727103931344_0367_20020727_003008p.mb57.gz 14.23MB Simrad multibeam processing format
20070727103932345_0368_20020727_013017p.mb57.gz 8.96MB Simrad multibeam processing format
20070727103933346_0369_20020727_023017p.mb57.gz 7.72MB Simrad multibeam processing format
20070727103934347_0370_20020727_033017p.mb57.gz 6.76MB Simrad multibeam processing format
20070727103936348_0371_20020727_043017p.mb57.gz 4.58MB Simrad multibeam processing format
20070727103937349_0372_20020727_093732p.mb57.gz 9.97MB Simrad multibeam processing format
20070727103938350_0373_20020727_103747p.mb57.gz 16.82MB Simrad multibeam processing format
20070727103939351_0374_20020727_113747p.mb57.gz 26.62MB Simrad multibeam processing format
20070727103942352_0375_20020727_123747p.mb57.gz 33.95MB Simrad multibeam processing format
20070727103944353_0376_20020727_133747p.mb57.gz 9.25MB Simrad multibeam processing format

Metadata Files: 354

Files File Size Description
LPRS02RR_Multibeam.xml NGDC created ISO metadata
20070727103400001_0002_20020627_024953p.mb57.mif 11.0KB Metadata I?? File for each individual data file
20070727103401002_0002_20020709_062209p.mb57.mif 11.0KB Metadata I?? File for each individual data file
20070727103403003_0003_20020627_034154p.mb57.mif 11.0KB Metadata I?? File for each individual data file
20070727103404004_0003_20020709_161339p.mb57.mif 11.0KB Metadata I?? File for each individual data file
20070727103406005_0004_20020627_044249p.mb57.mif 11.0KB Metadata I?? File for each individual data file
20070727103408006_0004_20020709_171359p.mb57.mif 11.0KB Metadata I?? File for each individual data file
20070727103408007_0005_20020627_054038p.mb57.mif 11.0KB Metadata I?? File for each individual data file
20070727103409008_0005_20020710_035112p.mb57.mif 11.0KB Metadata I?? File for each individual data file
20070727103410009_0006_20020627_054249p.mb57.mif 11.0KB Metadata I?? File for each individual data file
20070727103412010_0006_20020710_045130p.mb57.mif 11.0KB Metadata I?? File for each individual data file
20070727103413011_0007_20020627_064249p.mb57.mif 11.0KB Metadata I?? File for each individual data file
20070727103413012_0007_20020710_055130p.mb57.mif 11.0KB Metadata I?? File for each individual data file
20070727103414013_0008_20020627_074249p.mb57.mif 11.0KB Metadata I?? File for each individual data file
20070727103416014_0009_20020627_084249p.mb57.mif 11.0KB Metadata I?? File for each individual data file
20070727103417015_0010_20020627_094249p.mb57.mif 11.0KB Metadata I?? File for each individual data file
20070727103418016_0011_20020627_104249p.mb57.mif 11.0KB Metadata I?? File for each individual data file
20070727103418017_0012_20020627_114249p.mb57.mif 11.0KB Metadata I?? File for each individual data file
20070727103421018_0013_20020627_124249p.mb57.mif 11.0KB Metadata I?? File for each individual data file
20070727103421019_0015_20020628_080020p.mb57.mif 11.0KB Metadata I?? File for each individual data file
20070727103422020_0016_20020628_080839p.mb57.mif 11.0KB Metadata I?? File for each individual data file
20070727103422021_0017_20020628_090713p.mb57.mif 11.0KB Metadata I?? File for each individual data file
20070727103424022_0018_20020628_100713p.mb57.mif 11.0KB Metadata I?? File for each individual data file
20070727103426023_0019_20020628_110713p.mb57.mif 11.0KB Metadata I?? File for each individual data file
20070727103428024_0020_20020628_120713p.mb57.mif 11.0KB Metadata I?? File for each individual data file
20070727103429025_0021_20020628_130713p.mb57.mif 11.0KB Metadata I?? File for each individual data file
20070727103431026_0022_20020628_203321p.mb57.mif 11.0KB Metadata I?? File for each individual data file
20070727103433027_0023_20020628_213336p.mb57.mif 11.0KB Metadata I?? File for each individual data file
20070727103435028_0024_20020628_223336p.mb57.mif 11.0KB Metadata I?? File for each individual data file
20070727103437029_0025_20020628_233336p.mb57.mif 11.0KB Metadata I?? File for each individual data file
20070727103438030_0027_20020629_003807p.mb57.mif 11.0KB Metadata I?? File for each individual data file
20070727103438031_0028_20020629_013817p.mb57.mif 11.0KB Metadata I?? File for each individual data file
20070727103439032_0030_20020629_073315p.mb57.mif 11.0KB Metadata I?? File for each individual data file
20070727103441033_0031_20020629_083330p.mb57.mif 11.0KB Metadata I?? File for each individual data file
20070727103442034_0032_20020629_093330p.mb57.mif 11.0KB Metadata I?? File for each individual data file
20070727103442035_0033_20020629_103330p.mb57.mif 11.0KB Metadata I?? File for each individual data file
20070727103444036_0034_20020629_113330p.mb57.mif 11.0KB Metadata I?? File for each individual data file
20070727103446037_0035_20020629_123330p.mb57.mif 11.0KB Metadata I?? File for each individual data file
20070727103447038_0036_20020629_133331p.mb57.mif 11.0KB Metadata I?? File for each individual data file
20070727103447039_0037_20020629_143331p.mb57.mif 11.0KB Metadata I?? File for each individual data file
20070727103449040_0038_20020629_153331p.mb57.mif 11.0KB Metadata I?? File for each individual data file
20070727103451041_0039_20020629_171256p.mb57.mif 11.0KB Metadata I?? File for each individual data file
20070727103452042_0040_20020629_181256p.mb57.mif 11.0KB Metadata I?? File for each individual data file
20070727103453043_0041_20020629_184259p.mb57.mif 11.0KB Metadata I?? File for each individual data file
20070727103453044_0042_20020630_032050p.mb57.mif 11.0KB Metadata I?? File for each individual data file
20070727103454045_0043_20020630_042105p.mb57.mif 11.0KB Metadata I?? File for each individual data file
20070727103455046_0044_20020630_054451p.mb57.mif 11.0KB Metadata I?? File for each individual data file
20070727103457047_0045_20020630_064451p.mb57.mif 11.0KB Metadata I?? File for each individual data file
20070727103457048_0046_20020630_074451p.mb57.mif 11.0KB Metadata I?? File for each individual data file
20070727103458049_0047_20020630_084451p.mb57.mif 11.0KB Metadata I?? File for each individual data file
20070727103459050_0048_20020630_094451p.mb57.mif 11.0KB Metadata I?? File for each individual data file
20070727103501051_0049_20020630_104451p.mb57.mif 11.0KB Metadata I?? File for each individual data file
20070727103502052_0050_20020630_114451p.mb57.mif 11.0KB Metadata I?? File for each individual data file
20070727103502053_0051_20020630_124451p.mb57.mif 11.0KB Metadata I?? File for each individual data file
20070727103503054_0052_20020630_134451p.mb57.mif 11.0KB Metadata I?? File for each individual data file
20070727103504055_0053_20020630_144451p.mb57.mif 11.0KB Metadata I?? File for each individual data file
20070727103506056_0054_20020630_153225p.mb57.mif 11.0KB Metadata I?? File for each individual data file
20070727103507057_0055_20020630_163233p.mb57.mif 11.0KB Metadata I?? File for each individual data file
20070727103508058_0056_20020630_173233p.mb57.mif 11.0KB Metadata I?? File for each individual data file
20070727103508059_0057_20020630_183233p.mb57.mif 11.0KB Metadata I?? File for each individual data file
20070727103509060_0058_20020630_193233p.mb57.mif 11.0KB Metadata I?? File for each individual data file
20070727103511061_0059_20020630_203233p.mb57.mif 11.0KB Metadata I?? File for each individual data file
20070727103513062_0060_20020630_213233p.mb57.mif 11.0KB Metadata I?? File for each individual data file
20070727103513063_0061_20020630_223233p.mb57.mif 11.0KB Metadata I?? File for each individual data file
20070727103514064_0062_20020630_233233p.mb57.mif 11.0KB Metadata I?? File for each individual data file
20070727103516065_0064_20020701_004651p.mb57.mif 11.0KB Metadata I?? File for each individual data file
20070727103516066_0065_20020701_014755p.mb57.mif 11.0KB Metadata I?? File for each individual data file
20070727103517067_0066_20020701_023702p.mb57.mif 11.0KB Metadata I?? File for each individual data file
20070727103517068_0067_20020701_033756p.mb57.mif 11.0KB Metadata I?? File for each individual data file
20070727103518069_0068_20020701_111624p.mb57.mif 11.0KB Metadata I?? File for each individual data file
20070727103518070_0069_20020701_121643p.mb57.mif 11.0KB Metadata I?? File for each individual data file
20070727103519071_0070_20020701_131643p.mb57.mif 11.0KB Metadata I?? File for each individual data file
20070727103521072_0071_20020701_141643p.mb57.mif 11.0KB Metadata I?? File for each individual data file
20070727103522073_0072_20020701_151643p.mb57.mif 11.0KB Metadata I?? File for each individual data file
20070727103523074_0073_20020701_161643p.mb57.mif 11.0KB Metadata I?? File for each individual data file
20070727103524075_0074_20020701_171643p.mb57.mif 11.0KB Metadata I?? File for each individual data file
20070727103526076_0075_20020701_181643p.mb57.mif 11.0KB Metadata I?? File for each individual data file
20070727103527077_0076_20020701_191643p.mb57.mif 11.0KB Metadata I?? File for each individual data file
20070727103527078_0077_20020701_192901p.mb57.mif 11.0KB Metadata I?? File for each individual data file
20070727103528079_0078_20020701_195002p.mb57.mif 11.0KB Metadata I?? File for each individual data file
20070727103529080_0079_20020702_202315p.mb57.mif 11.0KB Metadata I?? File for each individual data file
20070727103529081_0080_20020702_202751p.mb57.mif 11.0KB Metadata I?? File for each individual data file
20070727103529082_0081_20020702_202851p.mb57.mif 11.0KB Metadata I?? File for each individual data file
20070727103530083_0082_20020702_205326p.mb57.mif 11.0KB Metadata I?? File for each individual data file
20070727103531084_0083_20020703_042423p.mb57.mif 11.0KB Metadata I?? File for each individual data file
20070727103532085_0084_20020703_052432p.mb57.mif 11.0KB Metadata I?? File for each individual data file
20070727103533086_0085_20020703_062432p.mb57.mif 11.0KB Metadata I?? File for each individual data file
20070727103534087_0086_20020703_064256p.mb57.mif 11.0KB Metadata I?? File for each individual data file
20070727103536088_0087_20020703_075637p.mb57.mif 11.0KB Metadata I?? File for each individual data file
20070727103537089_0088_20020703_085650p.mb57.mif 11.0KB Metadata I?? File for each individual data file
20070727103538090_0089_20020703_095650p.mb57.mif 11.0KB Metadata I?? File for each individual data file
20070727103539091_0090_20020703_105650p.mb57.mif 11.0KB Metadata I?? File for each individual data file
20070727103541092_0091_20020703_115650p.mb57.mif 11.0KB Metadata I?? File for each individual data file
20070727103542093_0092_20020703_125650p.mb57.mif 11.0KB Metadata I?? File for each individual data file
20070727103543094_0093_20020703_135650p.mb57.mif 11.0KB Metadata I?? File for each individual data file
20070727103544095_0094_20020703_145650p.mb57.mif 11.0KB Metadata I?? File for each individual data file
20070727103546096_0095_20020703_165232p.mb57.mif 11.0KB Metadata I?? File for each individual data file
20070727103548097_0096_20020703_175232p.mb57.mif 11.0KB Metadata I?? File for each individual data file
20070727103549098_0097_20020703_185232p.mb57.mif 11.0KB Metadata I?? File for each individual data file
20070727103551099_0098_20020703_202258p.mb57.mif 11.0KB Metadata I?? File for each individual data file
20070727103552100_0099_20020703_212258p.mb57.mif 11.0KB Metadata I?? File for each individual data file
20070727103553101_0100_20020704_033822p.mb57.mif 11.0KB Metadata I?? File for each individual data file
20070727103554102_0101_20020704_043831p.mb57.mif 11.0KB Metadata I?? File for each individual data file
20070727103556103_0102_20020704_053831p.mb57.mif 11.0KB Metadata I?? File for each individual data file
20070727103558104_0103_20020704_063831p.mb57.mif 11.0KB Metadata I?? File for each individual data file
20070727103601105_0104_20020704_073831p.mb57.mif 11.0KB Metadata I?? File for each individual data file
20070727103602106_0105_20020704_083831p.mb57.mif 11.0KB Metadata I?? File for each individual data file
20070727103604107_0106_20020704_093832p.mb57.mif 11.0KB Metadata I?? File for each individual data file
20070727103606108_0107_20020704_103832p.mb57.mif 11.0KB Metadata I?? File for each individual data file
20070727103608109_0108_20020704_113832p.mb57.mif 11.0KB Metadata I?? File for each individual data file
20070727103611110_0109_20020704_123832p.mb57.mif 11.0KB Metadata I?? File for each individual data file
20070727103611111_0110_20020704_133832p.mb57.mif 11.0KB Metadata I?? File for each individual data file
20070727103612112_0111_20020704_143832p.mb57.mif 11.0KB Metadata I?? File for each individual data file
20070727103613113_0112_20020704_153832p.mb57.mif 11.0KB Metadata I?? File for each individual data file
20070727103614114_0113_20020704_163832p.mb57.mif 11.0KB Metadata I?? File for each individual data file
20070727103616115_0114_20020704_173832p.mb57.mif 11.0KB Metadata I?? File for each individual data file
20070727103617116_0115_20020704_183832p.mb57.mif 11.0KB Metadata I?? File for each individual data file
20070727103618117_0116_20020704_193832p.mb57.mif 11.0KB Metadata I?? File for each individual data file
20070727103619118_0117_20020704_202908p.mb57.mif 11.0KB Metadata I?? File for each individual data file
20070727103619119_0118_20020704_203336p.mb57.mif 11.0KB Metadata I?? File for each individual data file
20070727103619120_0119_20020704_205145p.mb57.mif 11.0KB Metadata I?? File for each individual data file
20070727103621121_0120_20020704_211420p.mb57.mif 11.0KB Metadata I?? File for each individual data file
20070727103622122_0121_20020704_221431p.mb57.mif 11.0KB Metadata I?? File for each individual data file
20070727103622123_0122_20020704_231431p.mb57.mif 11.0KB Metadata I?? File for each individual data file
20070727103623124_0123_20020704_235743p.mb57.mif 11.0KB Metadata I?? File for each individual data file
20070727103623125_0125_20020705_113554p.mb57.mif 11.0KB Metadata I?? File for each individual data file
20070727103623126_0126_20020705_164540p.mb57.mif 11.0KB Metadata I?? File for each individual data file
20070727103624127_0127_20020705_175242p.mb57.mif 11.0KB Metadata I?? File for each individual data file
20070727103626128_0128_20020705_185242p.mb57.mif 11.0KB Metadata I?? File for each individual data file
20070727103627129_0129_20020705_195242p.mb57.mif 11.0KB Metadata I?? File for each individual data file
20070727103627130_0130_20020705_205242p.mb57.mif 11.0KB Metadata I?? File for each individual data file
20070727103628131_0131_20020706_040337p.mb57.mif 11.0KB Metadata I?? File for each individual data file
20070727103629132_0132_20020706_044900p.mb57.mif 11.0KB Metadata I?? File for each individual data file
20070727103629133_0133_20020706_122501p.mb57.mif 11.0KB Metadata I?? File for each individual data file
20070727103631134_0134_20020706_123631p.mb57.mif 11.0KB Metadata I?? File for each individual data file
20070727103631135_0135_20020706_133644p.mb57.mif 11.0KB Metadata I?? File for each individual data file
20070727103632136_0136_20020706_143644p.mb57.mif 11.0KB Metadata I?? File for each individual data file
20070727103633137_0137_20020706_153644p.mb57.mif 11.0KB Metadata I?? File for each individual data file
20070727103634138_0138_20020706_163644p.mb57.mif 11.0KB Metadata I?? File for each individual data file
20070727103634139_0139_20020706_173644p.mb57.mif 11.0KB Metadata I?? File for each individual data file
20070727103636140_0140_20020706_183644p.mb57.mif 11.0KB Metadata I?? File for each individual data file
20070727103637141_0141_20020706_193644p.mb57.mif 11.0KB Metadata I?? File for each individual data file
20070727103638142_0142_20020706_203644p.mb57.mif 11.0KB Metadata I?? File for each individual data file
20070727103638143_0143_20020706_213644p.mb57.mif 11.0KB Metadata I?? File for each individual data file
20070727103639144_0144_20020706_223644p.mb57.mif 11.0KB Metadata I?? File for each individual data file
20070727103641145_0145_20020706_233644p.mb57.mif 11.0KB Metadata I?? File for each individual data file
20070727103642146_0147_20020707_004302p.mb57.mif 11.0KB Metadata I?? File for each individual data file
20070727103642147_0148_20020707_014310p.mb57.mif 11.0KB Metadata I?? File for each individual data file
20070727103643148_0149_20020707_024310p.mb57.mif 11.0KB Metadata I?? File for each individual data file
20070727103644149_0150_20020707_034311p.mb57.mif 11.0KB Metadata I?? File for each individual data file
20070727103646150_0151_20020707_044311p.mb57.mif 11.0KB Metadata I?? File for each individual data file
20070727103647151_0152_20020707_054311p.mb57.mif 11.0KB Metadata I?? File for each individual data file
20070727103647152_0153_20020707_061824p.mb57.mif 11.0KB Metadata I?? File for each individual data file
20070727103647153_0154_20020707_064311p.mb57.mif 11.0KB Metadata I?? File for each individual data file
20070727103648154_0155_20020707_201437p.mb57.mif 11.0KB Metadata I?? File for each individual data file
20070727103649155_0156_20020707_211452p.mb57.mif 11.0KB Metadata I?? File for each individual data file
20070727103649156_0157_20020708_040735p.mb57.mif 11.0KB Metadata I?? File for each individual data file
20070727103651157_0158_20020708_042819p.mb57.mif 11.0KB Metadata I?? File for each individual data file
20070727103651158_0159_20020708_052834p.mb57.mif 11.0KB Metadata I?? File for each individual data file
20070727103652159_0160_20020708_061410p.mb57.mif 11.0KB Metadata I?? File for each individual data file
20070727103653160_0161_20020708_071421p.mb57.mif 11.0KB Metadata I?? File for each individual data file
20070727103653161_0162_20020708_081421p.mb57.mif 11.0KB Metadata I?? File for each individual data file
20070727103654162_0163_20020708_091421p.mb57.mif 11.0KB Metadata I?? File for each individual data file
20070727103656163_0164_20020708_101421p.mb57.mif 11.0KB Metadata I?? File for each individual data file
20070727103657164_0165_20020708_111421p.mb57.mif 11.0KB Metadata I?? File for each individual data file
20070727103700165_0166_20020708_121422p.mb57.mif 11.0KB Metadata I?? File for each individual data file
20070727103702166_0173_20020711_034637p.mb57.mif 11.0KB Metadata I?? File for each individual data file
20070727103702167_0174_20020711_041353p.mb57.mif 11.0KB Metadata I?? File for each individual data file
20070727103702168_0175_20020711_051402p.mb57.mif 11.0KB Metadata I?? File for each individual data file
20070727103703169_0176_20020711_061402p.mb57.mif 11.0KB Metadata I?? File for each individual data file
20070727103705170_0177_20020711_071402p.mb57.mif 11.0KB Metadata I?? File for each individual data file
20070727103706171_0178_20020711_081402p.mb57.mif 11.0KB Metadata I?? File for each individual data file
20070727103707172_0179_20020711_091402p.mb57.mif 11.0KB Metadata I?? File for each individual data file
20070727103707173_0180_20020711_101402p.mb57.mif 11.0KB Metadata I?? File for each individual data file
20070727103708174_0181_20020711_111402p.mb57.mif 11.0KB Metadata I?? File for each individual data file
20070727103709175_0182_20020711_121402p.mb57.mif 11.0KB Metadata I?? File for each individual data file
20070727103711176_0183_20020711_131402p.mb57.mif 11.0KB Metadata I?? File for each individual data file
20070727103712177_0184_20020711_141402p.mb57.mif 11.0KB Metadata I?? File for each individual data file
20070727103713178_0185_20020711_151402p.mb57.mif 11.0KB Metadata I?? File for each individual data file
20070727103713179_0186_20020711_161402p.mb57.mif 11.0KB Metadata I?? File for each individual data file
20070727103714180_0187_20020711_171402p.mb57.mif 11.0KB Metadata I?? File for each individual data file
20070727103716181_0188_20020711_181402p.mb57.mif 11.0KB Metadata I?? File for each individual data file
20070727103717182_0189_20020711_191402p.mb57.mif 11.0KB Metadata I?? File for each individual data file
20070727103717183_0190_20020713_012255p.mb57.mif 11.0KB Metadata I?? File for each individual data file
20070727103717184_0191_20020713_014021p.mb57.mif 11.0KB Metadata I?? File for each individual data file
20070727103718185_0193_20020713_014545p.mb57.mif 11.0KB Metadata I?? File for each individual data file
20070727103718186_0194_20020713_032329p.mb57.mif 11.0KB Metadata I?? File for each individual data file
20070727103719187_0195_20020713_042329p.mb57.mif 11.0KB Metadata I?? File for each individual data file
20070727103721188_0196_20020713_052329p.mb57.mif 11.0KB Metadata I?? File for each individual data file
20070727103722189_0197_20020713_062329p.mb57.mif 11.0KB Metadata I?? File for each individual data file
20070727103722190_0198_20020713_072210p.mb57.mif 11.0KB Metadata I?? File for each individual data file
20070727103722191_0199_20020713_072329p.mb57.mif 11.0KB Metadata I?? File for each individual data file
20070727103723192_0200_20020713_082329p.mb57.mif 11.0KB Metadata I?? File for each individual data file
20070727103723193_0201_20020713_092329p.mb57.mif 11.0KB Metadata I?? File for each individual data file
20070727103724194_0202_20020715_083224p.mb57.mif 11.0KB Metadata I?? File for each individual data file
20070727103724195_0203_20020715_084837p.mb57.mif 11.0KB Metadata I?? File for each individual data file
20070727103726196_0204_20020715_090828p.mb57.mif 11.0KB Metadata I?? File for each individual data file
20070727103726197_0205_20020715_100840p.mb57.mif 11.0KB Metadata I?? File for each individual data file
20070727103727198_0206_20020715_103459p.mb57.mif 11.0KB Metadata I?? File for each individual data file
20070727103727199_0207_20020715_113512p.mb57.mif 11.0KB Metadata I?? File for each individual data file
20070727103728200_0208_20020715_123512p.mb57.mif 11.0KB Metadata I?? File for each individual data file
20070727103729201_0209_20020715_133512p.mb57.mif 11.0KB Metadata I?? File for each individual data file
20070727103731202_0210_20020715_143512p.mb57.mif 11.0KB Metadata I?? File for each individual data file
20070727103732203_0211_20020715_153512p.mb57.mif 11.0KB Metadata I?? File for each individual data file
20070727103732204_0212_20020715_163512p.mb57.mif 11.0KB Metadata I?? File for each individual data file
20070727103733205_0213_20020715_173512p.mb57.mif 11.0KB Metadata I?? File for each individual data file
20070727103734206_0214_20020715_183512p.mb57.mif 11.0KB Metadata I?? File for each individual data file
20070727103737207_0215_20020715_193512p.mb57.mif 11.0KB Metadata I?? File for each individual data file
20070727103738208_0216_20020715_203512p.mb57.mif 11.0KB Metadata I?? File for each individual data file
20070727103738209_0217_20020715_213512p.mb57.mif 11.0KB Metadata I?? File for each individual data file
20070727103739210_0218_20020715_223512p.mb57.mif 11.0KB Metadata I?? File for each individual data file
20070727103739211_0219_20020715_231019p.mb57.mif 11.0KB Metadata I?? File for each individual data file
20070727103739212_0220_20020715_233512p.mb57.mif 11.0KB Metadata I?? File for each individual data file
20070727103741213_0221_20020716_164548p.mb57.mif 11.0KB Metadata I?? File for each individual data file
20070727103742214_0222_20020716_172234p.mb57.mif 11.0KB Metadata I?? File for each individual data file
20070727103742215_0223_20020716_182244p.mb57.mif 11.0KB Metadata I?? File for each individual data file
20070727103743216_0224_20020716_192244p.mb57.mif 11.0KB Metadata I?? File for each individual data file
20070727103743217_0225_20020716_202244p.mb57.mif 11.0KB Metadata I?? File for each individual data file
20070727103746218_0226_20020716_212244p.mb57.mif 11.0KB Metadata I?? File for each individual data file
20070727103747219_0227_20020716_222244p.mb57.mif 11.0KB Metadata I?? File for each individual data file
20070727103747220_0228_20020716_232244p.mb57.mif 11.0KB Metadata I?? File for each individual data file
20070727103748221_0230_20020717_002644p.mb57.mif 11.0KB Metadata I?? File for each individual data file
20070727103749222_0231_20020717_012654p.mb57.mif 11.0KB Metadata I?? File for each individual data file
20070727103749223_0232_20020717_013744p.mb57.mif 11.0KB Metadata I?? File for each individual data file
20070727103749224_0233_20020717_015458p.mb57.mif 11.0KB Metadata I?? File for each individual data file
20070727103751225_0234_20020717_022654p.mb57.mif 11.0KB Metadata I?? File for each individual data file
20070727103752226_0235_20020717_032654p.mb57.mif 11.0KB Metadata I?? File for each individual data file
20070727103752227_0237_20020717_043543p.mb57.mif 11.0KB Metadata I?? File for each individual data file
20070727103753228_0238_20020717_182644p.mb57.mif 11.0KB Metadata I?? File for each individual data file
20070727103753229_0239_20020717_184342p.mb57.mif 11.0KB Metadata I?? File for each individual data file
20070727103754230_0240_20020717_194355p.mb57.mif 11.0KB Metadata I?? File for each individual data file
20070727103754231_0241_20020718_030615p.mb57.mif 11.0KB Metadata I?? File for each individual data file
20070727103756232_0242_20020718_040624p.mb57.mif 11.0KB Metadata I?? File for each individual data file
20070727103756233_0243_20020718_041904p.mb57.mif 11.0KB Metadata I?? File for each individual data file
20070727103757234_0244_20020718_051913p.mb57.mif 11.0KB Metadata I?? File for each individual data file
20070727103758235_0245_20020718_061913p.mb57.mif 11.0KB Metadata I?? File for each individual data file
20070727103758236_0246_20020718_062906p.mb57.mif 11.0KB Metadata I?? File for each individual data file
20070727103758237_0247_20020718_071913p.mb57.mif 11.0KB Metadata I?? File for each individual data file
20070727103759238_0248_20020718_081913p.mb57.mif 11.0KB Metadata I?? File for each individual data file
20070727103801239_0249_20020718_091913p.mb57.mif 11.0KB Metadata I?? File for each individual data file
20070727103802240_0250_20020718_101913p.mb57.mif 11.0KB Metadata I?? File for each individual data file
20070727103802241_0251_20020718_111913p.mb57.mif 11.0KB Metadata I?? File for each individual data file
20070727103803242_0252_20020718_121913p.mb57.mif 11.0KB Metadata I?? File for each individual data file
20070727103803243_0254_20020718_131611p.mb57.mif 11.0KB Metadata I?? File for each individual data file
20070727103804244_0255_20020718_232149p.mb57.mif 11.0KB Metadata I?? File for each individual data file
20070727103806245_0257_20020719_002343p.mb57.mif 11.0KB Metadata I?? File for each individual data file
20070727103807246_0260_20020719_085941p.mb57.mif 11.0KB Metadata I?? File for each individual data file
20070727103807247_0261_20020719_090752p.mb57.mif 11.0KB Metadata I?? File for each individual data file
20070727103807248_0262_20020719_091029p.mb57.mif 11.0KB Metadata I?? File for each individual data file
20070727103808249_0263_20020719_170024p.mb57.mif 11.0KB Metadata I?? File for each individual data file
20070727103809250_0264_20020719_175101p.mb57.mif 11.0KB Metadata I?? File for each individual data file
20070727103811251_0265_20020719_183159p.mb57.mif 11.0KB Metadata I?? File for each individual data file
20070727103811252_0266_20020719_185113p.mb57.mif 11.0KB Metadata I?? File for each individual data file
20070727103812253_0267_20020719_195113p.mb57.mif 11.0KB Metadata I?? File for each individual data file
20070727103812254_0268_20020719_195315p.mb57.mif 11.0KB Metadata I?? File for each individual data file
20070727103813255_0269_20020719_205113p.mb57.mif 11.0KB Metadata I?? File for each individual data file
20070727103814256_0270_20020719_215113p.mb57.mif 11.0KB Metadata I?? File for each individual data file
20070727103814257_0271_20020719_225113p.mb57.mif 11.0KB Metadata I?? File for each individual data file
20070727103817258_0272_20020719_235113p.mb57.mif 11.0KB Metadata I?? File for each individual data file
20070727103818259_0274_20020720_000645p.mb57.mif 11.0KB Metadata I?? File for each individual data file
20070727103819260_0275_20020720_010654p.mb57.mif 11.0KB Metadata I?? File for each individual data file
20070727103819261_0276_20020720_011447p.mb57.mif 11.0KB Metadata I?? File for each individual data file
20070727103819262_0277_20020720_020654p.mb57.mif 11.0KB Metadata I?? File for each individual data file
20070727103820263_0278_20020720_030654p.mb57.mif 11.0KB Metadata I?? File for each individual data file
20070727103821264_0279_20020720_040654p.mb57.mif 11.0KB Metadata I?? File for each individual data file
20070727103822265_0280_20020720_050654p.mb57.mif 11.0KB Metadata I?? File for each individual data file
20070727103822266_0281_20020720_111046p.mb57.mif 11.0KB Metadata I?? File for each individual data file
20070727103822267_0282_20020720_111230p.mb57.mif 11.0KB Metadata I?? File for each individual data file
20070727103823268_0283_20020720_121240p.mb57.mif 11.0KB Metadata I?? File for each individual data file
20070727103825269_0284_20020720_131241p.mb57.mif 11.0KB Metadata I?? File for each individual data file
20070727103827270_0285_20020720_141241p.mb57.mif 11.0KB Metadata I?? File for each individual data file
20070727103827271_0286_20020720_151241p.mb57.mif 11.0KB Metadata I?? File for each individual data file
20070727103828272_0287_20020720_161241p.mb57.mif 11.0KB Metadata I?? File for each individual data file
20070727103829273_0288_20020720_171241p.mb57.mif 11.0KB Metadata I?? File for each individual data file
20070727103831274_0289_20020720_181241p.mb57.mif 11.0KB Metadata I?? File for each individual data file
20070727103832275_0290_20020720_191241p.mb57.mif 11.0KB Metadata I?? File for each individual data file
20070727103833276_0291_20020720_201241p.mb57.mif 11.0KB Metadata I?? File for each individual data file
20070727103833277_0292_20020720_211241p.mb57.mif 11.0KB Metadata I?? File for each individual data file
20070727103834278_0293_20020720_221241p.mb57.mif 11.0KB Metadata I?? File for each individual data file
20070727103836279_0294_20020720_231241p.mb57.mif 11.0KB Metadata I?? File for each individual data file
20070727103837280_0296_20020721_001324p.mb57.mif 11.0KB Metadata I?? File for each individual data file
20070727103838281_0297_20020721_011334p.mb57.mif 11.0KB Metadata I?? File for each individual data file
20070727103838282_0298_20020721_021334p.mb57.mif 11.0KB Metadata I?? File for each individual data file
20070727103839283_0299_20020721_031334p.mb57.mif 11.0KB Metadata I?? File for each individual data file
20070727103841284_0300_20020721_032524p.mb57.mif 11.0KB Metadata I?? File for each individual data file
20070727103842285_0301_20020721_042537p.mb57.mif 11.0KB Metadata I?? File for each individual data file
20070727103843286_0302_20020721_052537p.mb57.mif 11.0KB Metadata I?? File for each individual data file
20070727103843287_0303_20020721_062538p.mb57.mif 11.0KB Metadata I?? File for each individual data file
20070727103843288_0304_20020721_063835p.mb57.mif 11.0KB Metadata I?? File for each individual data file
20070727103844289_0305_20020721_072538p.mb57.mif 11.0KB Metadata I?? File for each individual data file
20070727103846290_0306_20020721_082538p.mb57.mif 11.0KB Metadata I?? File for each individual data file
20070727103846291_0307_20020721_092538p.mb57.mif 11.0KB Metadata I?? File for each individual data file
20070727103847292_0308_20020722_214218p.mb57.mif 11.0KB Metadata I?? File for each individual data file
20070727103847293_0309_20020722_221624p.mb57.mif 11.0KB Metadata I?? File for each individual data file
20070727103847294_0310_20020722_224903p.mb57.mif 11.0KB Metadata I?? File for each individual data file
20070727103848295_0311_20020722_234912p.mb57.mif 11.0KB Metadata I?? File for each individual data file
20070727103849296_0313_20020723_004955p.mb57.mif 11.0KB Metadata I?? File for each individual data file
20070727103851297_0314_20020723_133825p.mb57.mif 11.0KB Metadata I?? File for each individual data file
20070727103851298_0315_20020723_143838p.mb57.mif 11.0KB Metadata I?? File for each individual data file
20070727103852299_0317_20020724_100805p.mb57.mif 11.0KB Metadata I?? File for each individual data file
20070727103853300_0318_20020724_110816p.mb57.mif 11.0KB Metadata I?? File for each individual data file
20070727103854301_0319_20020724_120816p.mb57.mif 11.0KB Metadata I?? File for each individual data file
20070727103854302_0320_20020724_130816p.mb57.mif 11.0KB Metadata I?? File for each individual data file
20070727103856303_0321_20020725_005009p.mb57.mif 11.0KB Metadata I?? File for each individual data file
20070727103856304_0322_20020725_015023p.mb57.mif 11.0KB Metadata I?? File for each individual data file
20070727103857305_0323_20020725_015409p.mb57.mif 11.0KB Metadata I?? File for each individual data file
20070727103857306_0324_20020725_025425p.mb57.mif 11.0KB Metadata I?? File for each individual data file
20070727103858307_0325_20020725_035425p.mb57.mif 11.0KB Metadata I?? File for each individual data file
20070727103858308_0326_20020725_045425p.mb57.mif 11.0KB Metadata I?? File for each individual data file
20070727103859309_0327_20020725_055425p.mb57.mif 11.0KB Metadata I?? File for each individual data file
20070727103900310_0328_20020725_111751p.mb57.mif 11.0KB Metadata I?? File for each individual data file
20070727103901311_0329_20020725_111849p.mb57.mif 11.0KB Metadata I?? File for each individual data file
20070727103902312_0330_20020725_121911p.mb57.mif 11.0KB Metadata I?? File for each individual data file
20070727103902313_0331_20020725_131911p.mb57.mif 11.0KB Metadata I?? File for each individual data file
20070727103903314_0332_20020725_141911p.mb57.mif 11.0KB Metadata I?? File for each individual data file
20070727103903315_0333_20020725_151911p.mb57.mif 11.0KB Metadata I?? File for each individual data file
20070727103904316_0334_20020725_161911p.mb57.mif 11.0KB Metadata I?? File for each individual data file
20070727103906317_0335_20020725_171911p.mb57.mif 11.0KB Metadata I?? File for each individual data file
20070727103907318_0336_20020725_181911p.mb57.mif 11.0KB Metadata I?? File for each individual data file
20070727103907319_0337_20020725_191911p.mb57.mif 11.0KB Metadata I?? File for each individual data file
20070727103908320_0338_20020725_201911p.mb57.mif 11.0KB Metadata I?? File for each individual data file
20070727103908321_0339_20020725_211911p.mb57.mif 11.0KB Metadata I?? File for each individual data file
20070727103909322_0340_20020725_221911p.mb57.mif 11.0KB Metadata I?? File for each individual data file
20070727103911323_0341_20020725_225409p.mb57.mif 11.0KB Metadata I?? File for each individual data file
20070727103911324_0342_20020725_235418p.mb57.mif 11.0KB Metadata I?? File for each individual data file
20070727103912325_0346_20020726_005642p.mb57.mif 11.0KB Metadata I?? File for each individual data file
20070727103913326_0347_20020726_015651p.mb57.mif 11.0KB Metadata I?? File for each individual data file
20070727103914327_0348_20020726_025651p.mb57.mif 11.0KB Metadata I?? File for each individual data file
20070727103915328_0349_20020726_035651p.mb57.mif 11.0KB Metadata I?? File for each individual data file
20070727103916329_0350_20020726_043741p.mb57.mif 11.0KB Metadata I?? File for each individual data file
20070727103916330_0351_20020726_045651p.mb57.mif 11.0KB Metadata I?? File for each individual data file
20070727103917331_0352_20020726_055651p.mb57.mif 11.0KB Metadata I?? File for each individual data file
20070727103918332_0353_20020726_065651p.mb57.mif 11.0KB Metadata I?? File for each individual data file
20070727103918333_0354_20020726_075651p.mb57.mif 11.0KB Metadata I?? File for each individual data file
20070727103919334_0355_20020726_085651p.mb57.mif 11.0KB Metadata I?? File for each individual data file
20070727103921335_0356_20020726_095651p.mb57.mif 11.0KB Metadata I?? File for each individual data file
20070727103922336_0357_20020726_105651p.mb57.mif 11.0KB Metadata I?? File for each individual data file
20070727103922337_0359_20020726_174606p.mb57.mif 11.0KB Metadata I?? File for each individual data file
20070727103923338_0360_20020726_184606p.mb57.mif 11.0KB Metadata I?? File for each individual data file
20070727103924339_0361_20020726_192718p.mb57.mif 11.0KB Metadata I?? File for each individual data file
20070727103926340_0362_20020726_202730p.mb57.mif 11.0KB Metadata I?? File for each individual data file
20070727103927341_0363_20020726_212731p.mb57.mif 11.0KB Metadata I?? File for each individual data file
20070727103927342_0364_20020726_222731p.mb57.mif 11.0KB Metadata I?? File for each individual data file
20070727103929343_0365_20020726_232731p.mb57.mif 11.0KB Metadata I?? File for each individual data file
20070727103931344_0367_20020727_003008p.mb57.mif 11.0KB Metadata I?? File for each individual data file
20070727103932345_0368_20020727_013017p.mb57.mif 11.0KB Metadata I?? File for each individual data file
20070727103933346_0369_20020727_023017p.mb57.mif 11.0KB Metadata I?? File for each individual data file
20070727103934347_0370_20020727_033017p.mb57.mif 11.0KB Metadata I?? File for each individual data file
20070727103936348_0371_20020727_043017p.mb57.mif 11.0KB Metadata I?? File for each individual data file
20070727103937349_0372_20020727_093732p.mb57.mif 11.0KB Metadata I?? File for each individual data file
20070727103938350_0373_20020727_103747p.mb57.mif 11.0KB Metadata I?? File for each individual data file
20070727103939351_0374_20020727_113747p.mb57.mif 11.0KB Metadata I?? File for each individual data file
20070727103942352_0375_20020727_123747p.mb57.mif 11.0KB Metadata I?? File for each individual data file
20070727103944353_0376_20020727_133747p.mb57.mif 11.0KB Metadata I?? File for each individual data file